• In India
  • List of Countries
  • For 7 days
  • Water Temperature
  • Satellite Maps
  • Weather Map
  • Weather Widgets
  • user-avatar
    Login

    Hourly Weather Durres

    Today, 21 January, Sunday

    Time Temperature Precipitation Wind Pressure Humidity
    00:00 +7°C° 0 mm 2 mps 758 mmHg 90%
    01:00 +7°C° 0 mm 2 mps 757 mmHg 90%
    02:00 +7°C° 0 mm 3 mps 757 mmHg 88%
    03:00 +7°C° 0 mm 3 mps 756 mmHg 86%
    04:00 +6°C° 0 mm 4 mps 756 mmHg 84%
    05:00 +6°C° 0.2 mm 5 mps 755 mmHg 83%
    06:00 +7°C° 0.2 mm 5 mps 755 mmHg 82%
    07:00 +7°C° 0.2 mm 6 mps 754 mmHg 82%
    08:00 +8°C° 0.4 mm 6 mps 754 mmHg 81%
    09:00 +9°C° 0.4 mm 7 mps 753 mmHg 80%
    10:00 +10°C° 0.4 mm 7 mps 752 mmHg 79%
    11:00 +10°C° 0.4 mm 8 mps 752 mmHg 79%
    12:00 +10°C° 0.4 mm 8 mps 751 mmHg 78%
    13:00 +10°C° 0.4 mm 8 mps 750 mmHg 78%
    14:00 +10°C° 1 mm 9 mps 750 mmHg 83%
    15:00 +8°C° 1 mm 9 mps 749 mmHg 88%
    16:00 +8°C° 1 mm 9 mps 749 mmHg 93%
    17:00 +9°C° 1.2 mm 8 mps 749 mmHg 93%
    18:00 +7°C° 1.2 mm 8 mps 749 mmHg 93%
    19:00 +8°C° 1.2 mm 7 mps 749 mmHg 93%
    20:00 +8°C° 0.3 mm 7 mps 750 mmHg 93%
    21:00 +8°C° 0.3 mm 7 mps 750 mmHg 93%
    22:00 +8°C° 0.3 mm 6 mps 750 mmHg 93%
    23:00 +6°C° 0.2 mm 7 mps 751 mmHg 91%

    Tomorrow, 22 January, Monday

    Time Temperature Precipitation Wind Pressure Humidity
    00:00 +6°C° 0.2 mm 8 mps 751 mmHg 89%
    01:00 +5°C° 0.2 mm 8 mps 752 mmHg 87%
    02:00 +5°C° 0 mm 8 mps 753 mmHg 85%
    03:00 +4°C° 0 mm 8 mps 753 mmHg 83%
    04:00 +4°C° 0 mm 8 mps 754 mmHg 80%
    05:00 +2°C° 0 mm 8 mps 754 mmHg 79%
    06:00 +2°C° 0 mm 8 mps 755 mmHg 77%
    07:00 +1°C° 0 mm 8 mps 756 mmHg 75%
    08:00 +2°C° 0 mm 8 mps 756 mmHg 69%
    09:00 +4°C° 0 mm 8 mps 757 mmHg 62%
    10:00 +6°C° 0 mm 8 mps 757 mmHg 55%
    11:00 +6°C° 0 mm 8 mps 757 mmHg 53%
    12:00 +6°C° 0 mm 8 mps 757 mmHg 51%
    13:00 +7°C° 0 mm 8 mps 757 mmHg 49%
    14:00 +6°C° 0 mm 7 mps 758 mmHg 52%
    15:00 +7°C° 0 mm 6 mps 758 mmHg 55%
    16:00 +7°C° 0 mm 6 mps 758 mmHg 58%
    17:00 +4°C° 0 mm 6 mps 759 mmHg 61%
    18:00 +3°C° 0 mm 5 mps 760 mmHg 64%
    19:00 +2°C° 0 mm 5 mps 760 mmHg 67%
    20:00 +2°C° 0 mm 5 mps 760 mmHg 66%
    21:00 +2°C° 0 mm 5 mps 761 mmHg 66%
    22:00 +3°C° 0 mm 4 mps 761 mmHg 65%
    23:00 +3°C° 0 mm 4 mps 761 mmHg 65%

    Day after tomorrow, 23 January, Tuesday

    Time Temperature Precipitation Wind Pressure Humidity
    00:00 +3°C° 0 mm 4 mps 761 mmHg 64%
    01:00 +3°C° 0 mm 4 mps 762 mmHg 64%
    02:00 +2°C° 0 mm 3 mps 762 mmHg 64%
    03:00 +2°C° 0 mm 3 mps 762 mmHg 64%
    04:00 +2°C° 0 mm 3 mps 762 mmHg 64%
    05:00 +2°C° 0 mm 3 mps 762 mmHg 64%
    06:00 +2°C° 0 mm 3 mps 763 mmHg 64%
    07:00 +1°C° 0 mm 4 mps 763 mmHg 63%
    08:00 +4°C° 0 mm 3 mps 764 mmHg 58%
    09:00 +7°C° 0 mm 3 mps 764 mmHg 52%
    10:00 +8°C° 0 mm 3 mps 764 mmHg 47%
    11:00 +8°C° 0 mm 4 mps 764 mmHg 44%
    12:00 +10°C° 0 mm 4 mps 764 mmHg 40%
    13:00 +11°C° 0 mm 4 mps 764 mmHg 37%
    14:00 +11°C° 0 mm 4 mps 764 mmHg 42%
    15:00 +10°C° 0 mm 4 mps 765 mmHg 47%
    16:00 +8°C° 0 mm 5 mps 765 mmHg 52%
    17:00 +7°C° 0 mm 5 mps 766 mmHg 54%
    18:00 +6°C° 0 mm 5 mps 766 mmHg 56%
    19:00 +4°C° 0 mm 6 mps 767 mmHg 58%
    20:00 +3°C° 0 mm 6 mps 767 mmHg 59%
    21:00 +3°C° 0 mm 6 mps 767 mmHg 59%
    22:00 +3°C° 0 mm 6 mps 768 mmHg 59%
    23:00 +2°C° 0 mm 5 mps 768 mmHg 59%

    24 January, Wednesday

    Time Temperature Precipitation Wind Pressure Humidity
    00:00 +2°C° 0 mm 5 mps 768 mmHg 59%
    01:00 +2°C° 0 mm 5 mps 769 mmHg 59%
    02:00 +2°C° 0 mm 5 mps 769 mmHg 59%
    03:00 +2°C° 0 mm 5 mps 769 mmHg 58%
    04:00 +2°C° 0 mm 5 mps 769 mmHg 58%
    05:00 +1°C° 0 mm 5 mps 769 mmHg 57%
    06:00 +1°C° 0 mm 5 mps 770 mmHg 57%
    07:00 +1°C° 0 mm 5 mps 770 mmHg 56%
    08:00 +3°C° 0 mm 5 mps 770 mmHg 52%
    09:00 +6°C° 0 mm 5 mps 770 mmHg 47%
    10:00 +7°C° 0 mm 4 mps 771 mmHg 42%
    11:00 +8°C° 0 mm 4 mps 770 mmHg 39%
    12:00 +10°C° 0 mm 4 mps 770 mmHg 37%
    13:00 +11°C° 0 mm 3 mps 770 mmHg 34%
    14:00 +10°C° 0 mm 3 mps 770 mmHg 39%
    15:00 +10°C° 0 mm 3 mps 770 mmHg 43%
    16:00 +9°C° 0 mm 3 mps 770 mmHg 47%
    17:00 +8°C° 0 mm 3 mps 770 mmHg 50%
    18:00 +7°C° 0 mm 3 mps 770 mmHg 52%
    19:00 +4°C° 0 mm 3 mps 771 mmHg 54%
    20:00 +4°C° 0 mm 3 mps 771 mmHg 54%
    21:00 +4°C° 0 mm 3 mps 771 mmHg 54%
    22:00 +3°C° 0 mm 3 mps 771 mmHg 55%
    23:00 +3°C° 0 mm 3 mps 771 mmHg 54%

    25 January, Thursday

    Time Temperature Precipitation Wind Pressure Humidity
    00:00 +3°C° 0 mm 3 mps 771 mmHg 54%
    01:00 +4°C° 0 mm 2 mps 770 mmHg 54%
    02:00 +4°C° 0 mm 2 mps 770 mmHg 52%
    03:00 +4°C° 0 mm 2 mps 770 mmHg 51%
    04:00 +4°C° 0 mm 2 mps 770 mmHg 50%
    05:00 +4°C° 0 mm 2 mps 770 mmHg 48%
    06:00 +4°C° 0 mm 2 mps 769 mmHg 47%
    07:00 +4°C° 0 mm 2 mps 769 mmHg 46%
    08:00 +6°C° 0 mm 2 mps 769 mmHg 42%
    09:00 +9°C° 0 mm 1 mps 769 mmHg 38%
    10:00 +11°C° 0 mm 1 mps 769 mmHg 34%
    11:00 +11°C° 0 mm 1 mps 768 mmHg 34%
    12:00 +12°C° 0 mm 1 mps 768 mmHg 34%
    13:00 +12°C° 0 mm 1 mps 767 mmHg 34%
    14:00 +12°C° 0 mm 1 mps 767 mmHg 40%
    15:00 +11°C° 0 mm 1 mps 767 mmHg 46%
    16:00 +10°C° 0 mm 1 mps 767 mmHg 52%
    17:00 +9°C° 0 mm 1 mps 767 mmHg 54%
    18:00 +8°C° 0 mm 1 mps 767 mmHg 56%
    19:00 +7°C° 0 mm 1 mps 767 mmHg 58%
    20:00 +7°C° 0 mm 1 mps 767 mmHg 57%
    21:00 +7°C° 0 mm 1 mps 767 mmHg 56%
    22:00 +6°C° 0 mm 1 mps 767 mmHg 55%
    23:00 +5°C° 0 mm 2 mps 766 mmHg 54%

    26 January, Friday

    Time Temperature Precipitation Wind Pressure Humidity
    00:00 +5°C° 0 mm 2 mps 766 mmHg 53%
    01:00 +5°C° 0 mm 2 mps 766 mmHg 52%
    02:00 +5°C° 0 mm 2 mps 766 mmHg 51%
    03:00 +5°C° 0 mm 2 mps 765 mmHg 50%
    04:00 +5°C° 0 mm 2 mps 765 mmHg 49%
    05:00 +5°C° 0 mm 2 mps 765 mmHg 48%
    06:00 +4°C° 0 mm 3 mps 765 mmHg 47%
    07:00 +4°C° 0 mm 3 mps 765 mmHg 46%
    08:00 +7°C° 0 mm 3 mps 766 mmHg 44%
    09:00 +8°C° 0 mm 3 mps 766 mmHg 41%
    10:00 +10°C° 0 mm 3 mps 766 mmHg 38%
    11:00 +11°C° 0 mm 3 mps 765 mmHg 40%
    12:00 +11°C° 0 mm 3 mps 765 mmHg 41%
    13:00 +12°C° 0 mm 3 mps 765 mmHg 43%
    14:00 +12°C° 0 mm 3 mps 765 mmHg 48%
    15:00 +11°C° 0 mm 3 mps 765 mmHg 53%
    16:00 +10°C° 0 mm 3 mps 765 mmHg 58%
    17:00 +9°C° 0 mm 3 mps 765 mmHg 60%
    18:00 +8°C° 0 mm 3 mps 766 mmHg 62%
    19:00 +7°C° 0 mm 3 mps 766 mmHg 63%
    20:00 +7°C° 0 mm 3 mps 766 mmHg 63%
    21:00 +6°C° 0 mm 4 mps 766 mmHg 62%
    22:00 +6°C° 0 mm 4 mps 767 mmHg 62%
    23:00 +6°C° 0 mm 4 mps 767 mmHg 62%
    Show more